NOAA 16 DEB, 41211

Orbit data source: Space-Track

NOAA 16 DEB, 41211 is space debris in SSO originally from a launch on Thu, 21 Sep 2000 UTC launched from the Air Force Western Test Range (AFWTR). Debris objects in space refer to the collection of defunct objects orbiting the Earth. Examples of debris include non-operational satellites, rocket bodies, and fragments generated from explosions, collisions, or faulty payload assembly.

Loading next visibility...
Identifier
41211, 2000-055DQ
Orbit
SSO
Country
Flag of USUS
Related business
Manufacturer
Unknown
Mission
Spacecraft
Bus & Motor
Unknown
Mass
Unknown
Launch date (UTC)
2000-09-21 (26 years ago)
Launch vehicle
Unknown
Launch site
Air Force Western Test Range (AFWTR)
Object type
Payload
Rocket body
Debris
Shape & HBR
Unknown shape, 0.1 m
Radar Cross Section
Medium (>0.1 m² and <1 m²)

Expand to show TLE details & history
Last TLE update: 7 hours ago

TLE from 7 hours ago
0 NOAA 16 DEB
1 41211U 00055DQ  26237.58710944  .00001777  00000-0  82771-3 0  9997
2 41211  98.6728 286.2605 0023287 268.3835  91.4675 14.21627248552176
Epoch: 2026-08-25T14:05Z
TLE epoch observation values (Epoch: 2026-08-25T14:05:26.255Z)
Latitude
-0.00003°
Longitude
101.04879°
Altitude
823.241 km
Speed
7.441 km/s
True Right ascension
19h 05m 02s
True Declination
0° 00' 00"
Sunlit
Object was in full shadow at epoch
Visualization orbit readout
Latitude
Unknown
Longitude
Unknown
Altitude
Unknown
Speed
Unknown
Apparent Right ascension
Unknown
Apparent Declination
Unknown
Sunlit
N/A
Visualization observer readout
Local Sidereal Time
12:46:08
Azimuth
Unknown
Elevation
Unknown
Doppler factor
Unknown
Orbital elements
Apogee altitude
833.765 km
Perigee altitude
800.254 km
Semi-major axis
7,195.146 km
Eccentricity
0.00233
Inclination
98.6728°
RAAN
286.2605°
Arg. of periapsis
268.3835°
True anomaly
91.73424°
Mean anomaly
91.4675°
Eccentric anomaly
91.60087°
Mean motion
3.55618 °/min
Orbital period
101.23 mins
BSTAR
0.00082771
Loading maneuver chart data...
Computing Atmospheric mass density...
Loading historical data...
Loading historical data...
Loading historical data...
Loading historical data...
Loading historical data...
Loading historical data...
Loading historical data...

Documentation

Showing up to 5 results
|